P/2019 A3 ( PanSTARRS )

Japanese version
Home page
Updated on January 12, 2019

---------------------------------------------------------------------

* Profile

Discovery Date January 3, 2019
Magnitude 21.9 mag
Discoverer Pan-STARRS 1 telescope (Haleakala)

* Orbital Elements

Epoch 2018 July 21.0 TT = JDT 2458320.5
T 2018 Aug. 1.80069 TT                                  MPCW
q   2.3134204            (2000.0)            P               Q
n   0.17656580     Peri.  325.47270     +0.98790878     +0.07103334
a   3.1467699      Node    31.33334     +0.02450961     +0.80612924
e   0.2648270      Incl.   15.36716     -0.15308666     +0.58746056
P   5.58
From 34 observations 2018 Aug. 8-2019 Jan. 10, mean residual 0".3.

* Magnitudes Graph

        m1 = 17.0 + 5 log d + 10.0 log r

---------------------------------------------------------------------

The orbital elements are published on M.P.E.C. 2019-A166.
The magnitudes graphs are made with Comet for Windows.

---------------------------------------------------------------------

Copyright(C) Seiichi Yoshida (comet@aerith.net). All rights reserved.